Location: Buena Vista Beach
(41.8098°N, 81.1279°W)
Time: 17:43:22
(UTC+00:00)

Cosmos 2227 Rocket - Pass Details

Date: 29 October 2020
Orbit: 839 x 845 km, 71.0° (Epoch: 27 November)

Event Time Altitude Azimuth Distance (km) Brightness Sun altitude
Rises 23:40:31 0° 334° (NNW) 3,406 5.6 -15.2°
Reaches altitude 10° 23:42:59 10° 333° (NNW) 2,468 4.9 -15.6°
Maximum altitude 23:48:38 77° 249° (WSW) 870 2.4 -16.7°
Drops below altitude 10° 23:54:16 10° 164° (SSE) 2,456 4.5 -17.7°
Sets 23:56:42 0° 163° (SSE) 3,388 5.2 -18.2°
